Regional Weather Roundup
Issued by NWS Northern Indiana

Home | Current Version | Previous Version | Text Only | Print | Product List | Glossary Off
Versions: 1 2 3 4 5 6 7 8 9 10 11 12 13 14 15 16 17 18 19 20 21 22 23 24 25 26 27 28 29 30 31 32 33 34 35 36 37 38 39 40 41 42 43 44 45 46 47 48 49 50

000
ASUS43 KIWX 220510
RWRIWX

KIWX WEATHER ROUNDUP
NATIONAL WEATHER SERVICE NORTHERN INDIANA
100 AM EDT MON SEP 22 2014

NOTE: "FAIR" INDICATES FEW OR NO CLOUDS BELOW 12,000 FEET WITH NO
SIGNIFICANT WEATHER AND/OR OBSTRUCTIONS TO VISIBILITY.

* THESE STATIONS ARE NOT UNDER NWS QUALITY CONTROL. THEY ALSO MAY NOT
  REPORT WEATHER SUCH AS PRECIPITATION OR FOG.

INZ001>027-220600-
NORTHERN INDIANA

CITY           SKY/WX    TMP DP  RH WIND       PRES   REMARKS
GARY*          MOCLDY    58  49  72 N12G18    30.13R
VALPARAISO     CLEAR     53  47  79 N3        30.12R
MICHIGAN CITY* MOCLDY    54  43  66 N10G20    30.12R
LAPORTE*       PTCLDY    53  45  76 N10       30.12R
KNOX*          PTCLDY    49  46  88 N5        30.11R
SOUTH BEND     PTCLDY    52  44  74 N9        30.11R
GOSHEN         PTCLDY   N/A N/A N/A N9        30.10R
MONTICELLO*    PTCLDY    49  48  97 NW5       30.11S
LOGANSPORT*    PTCLDY    50  46  87 CALM      30.11S
ROCHESTER*     CLEAR     52  46  82 NW3       30.11R
WARSAW*        CLEAR     46  43  87 N6        30.11R
ANGOLA*        CLOUDY    48  36  61 N8        30.08R
FORT WAYNE     PTCLDY    50  43  77 N13       30.09S
HUNTINGTON*    MOCLDY    50  46  87 N6        30.09S
PERU/GRISSOM   CLEAR     52  52 100 N6        30.10S
MARION*        CLEAR     49  46  87 N5        30.10S

$$
INZ028>050-220600-
CENTRAL INDIANA

CITY           SKY/WX    TMP DP  RH WIND       PRES   REMARKS
LAFAYETTE      CLEAR     53  49  86 N5        30.11S
KOKOMO*        CLEAR     52  45  76 NW6       30.11R
MUNCIE*        CLEAR     50  46  86 NW7       30.09S
INDIANAPOLIS   CLOUDY    57  48  72 N12       30.10R

$$
MIZ043>046-050>051-056>058-064>065-071>073-077>080-220600-
SOUTHWEST LOWER MICHIGAN

CITY           SKY/WX    TMP DP  RH WIND       PRES   REMARKS
BATTLE CREEK   CLOUDY    48  38  68 N9        30.10R
BENTON HARBOR  CLOUDY    52  44  74 N9        30.11S
COLDWATER*     CLOUDY    49  40  71 N13G18    30.09R
HILLSDALE*     CLOUDY    49  41  75 NW9       30.07R
HOLLAND        CLOUDY    49  40  71 NW6       30.13S
GRAND RAPIDS   CLOUDY    48  39  71 N13       30.11R
KALAMAZOO      MOCLDY    45  39  79 N13       30.11R
STURGIS*       CLEAR     45  39  81 N10G20    30.09R
THREE RIVERS*  FAIR      47  40  78 N8        30.11R

$$
OHZ001>008-015>018-024>025-220600-
NORTHWEST OHIO

CITY           SKY/WX    TMP DP  RH WIND       PRES   REMARKS
WAUSEON*       CLOUDY    50  46  87 N9G15     30.06R
DEFIANCE       PTCLDY   N/A N/A N/A NW13G18   30.06R
FINDLAY        CLOUDY    56  48  74 NW6       30.02S
TOLEDO EXPRESS CLOUDY    50  45  83 N8        30.04S
TOLEDO METCALF CLOUDY    52  44  74 NW10      30.04R
LIMA           CLOUDY    54  48  80 NW15G21   30.05R

$$
AND FOR LAKE MICHIGAN COASTAL AND OPEN LAKE BUOY OBSERVATIONS

STATION/POSITION TEMP    WIND        PRES    VSBY  WAVE
                 AIR SEA DIR/SP/G                  HT/PER
                 (F)     (DEG/KT/KT) (MB)    (MI)  (FT/S)
CALUMET HARBOR    57     340/ 10/ 14 1018.9S
MICHIGAN CITY     56     350/ 24/ 28   N/A
SAINT JOSEPH      56     350/ 14/ 25 1020.7R
SOUTH LAKE BUOY   54 61  350/ 19/ 25 1020.3R         7/ 6
4 MI NW BRIDGMAN  56 65  360/ 21/ 27   N/A           8/ 7
MICHIGAN CITY     57 64   10/ 17/ 25   N/A           8/ 8

$$
&&


USA.gov is the U.S. government's official web portal to all federal, state and local government web resources and services.